Time,TemperatureF,DewpointF,PressureIn,WindDirection,WindDirectionDegrees,WindSpeedMPH,WindSpeedGustMPH,Humidity,HourlyPrecipIn,Conditions,Clouds,dailyrainin,SoftwareType,DateUTC
2013-09-23 12:42:00,62.6,41.0,29.87,WNW,293,20.7,-999.9,45,-99.99,,,-99.99,,2013-09-23 16:42:00,
2013-09-23 12:48:00,62.6,41.0,29.87,WNW,293,20.7,-999.9,45,-99.99,,,-99.99,,2013-09-23 16:48:00,
2013-09-23 12:54:00,62.6,41.0,29.87,NW,313,11.5,-999.9,45,-99.99,,,-99.99,,2013-09-23 16:54:00,
2013-09-23 13:00:00,62.6,41.0,29.87,NW,313,11.5,-999.9,45,-99.99,,,-99.99,,2013-09-23 17:00:00,
2013-09-23 13:06:00,62.6,41.0,29.87,WNW,302,3.5,-999.9,45,-99.99,,,-99.99,,2013-09-23 17:06:00,
2013-09-23 13:12:00,62.6,41.0,29.86,NNW,342,15.0,-999.9,45,-99.99,,,-99.99,,2013-09-23 17:12:00,
2013-09-23 13:18:00,62.6,41.0,29.86,NNW,342,15.0,-999.9,45,-99.99,,,-99.99,,2013-09-23 17:18:00,
2013-09-23 13:24:00,62.6,39.2,29.86,WNW,301,12.7,-999.9,42,-99.99,,,-99.99,,2013-09-23 17:24:00,
2013-09-23 13:30:00,62.6,39.2,29.86,WNW,301,12.7,-999.9,42,-99.99,,,-99.99,,2013-09-23 17:30:00,
2013-09-23 13:36:00,64.4,41.0,29.86,NW,318,4.6,-999.9,42,-99.99,,,-99.99,,2013-09-23 17:36:00,
2013-09-23 13:42:00,64.4,41.0,29.86,NNW,340,16.1,-999.9,42,-99.99,,,-99.99,,2013-09-23 17:42:00,
2013-09-23 13:48:00,64.4,41.0,29.86,NNW,340,16.1,-999.9,42,-99.99,,,-99.99,,2013-09-23 17:48:00,
2013-09-23 13:54:00,64.4,41.0,29.85,NNW,330,17.3,-999.9,42,-99.99,,,-99.99,,2013-09-23 17:54:00,
2013-09-23 14:00:00,64.4,41.0,29.85,NNW,330,17.3,-999.9,42,-99.99,,,-99.99,,2013-09-23 18:00:00,
2013-09-23 14:06:00,64.4,41.0,29.85,NW,307,11.5,-999.9,42,-99.99,,,-99.99,,2013-09-23 18:06:00,
2013-09-23 14:12:00,64.4,41.0,29.85,North,357,15.0,-999.9,42,-99.99,,,-99.99,,2013-09-23 18:12:00,
2013-09-23 14:18:00,64.4,41.0,29.85,North,357,15.0,-999.9,42,-99.99,,,-99.99,,2013-09-23 18:18:00,
2013-09-23 14:24:00,64.4,41.0,29.85,NW,321,16.1,-999.9,42,-99.99,,,-99.99,,2013-09-23 18:24:00,
2013-09-23 14:30:00,64.4,41.0,29.85,NW,321,16.1,-999.9,42,-99.99,,,-99.99,,2013-09-23 18:30:00,
2013-09-23 14:36:00,64.4,41.0,29.84,WNW,298,10.4,-999.9,42,-99.99,,,-99.99,,2013-09-23 18:36:00,
2013-09-23 14:42:00,66.2,41.0,29.84,NNW,345,10.4,-999.9,40,-99.99,,,-99.99,,2013-09-23 18:42:00,
2013-09-23 14:48:00,66.2,41.0,29.84,NNW,345,10.4,-999.9,40,-99.99,,,-99.99,,2013-09-23 18:48:00,
2013-09-23 14:54:00,66.2,41.0,29.84,NNW,329,17.3,-999.9,40,-99.99,,,-99.99,,2013-09-23 18:54:00,
2013-09-23 15:00:00,66.2,41.0,29.84,NNW,329,17.3,-999.9,40,-99.99,,,-99.99,,2013-09-23 19:00:00,
2013-09-23 15:12:00,66.2,41.0,29.84,NW,316,15.0,-999.9,40,-99.99,,,-99.99,,2013-09-23 19:12:00,
2013-09-23 15:18:00,66.2,41.0,29.84,NW,316,15.0,-999.9,40,-99.99,,,-99.99,,2013-09-23 19:18:00,
2013-09-23 15:24:00,66.2,39.2,29.84,NNW,348,12.7,-999.9,37,-99.99,,,-99.99,,2013-09-23 19:24:00,
2013-09-23 15:30:00,66.2,39.2,29.84,NNW,348,12.7,-999.9,37,-99.99,,,-99.99,,2013-09-23 19:30:00,
2013-09-23 15:36:00,66.2,39.2,29.84,NW,305,18.4,-999.9,37,-99.99,,,-99.99,,2013-09-23 19:36:00,
2013-09-23 15:42:00,66.2,39.2,29.84,NNW,341,11.5,-999.9,37,-99.99,,,-99.99,,2013-09-23 19:42:00,
2013-09-23 15:48:00,66.2,39.2,29.84,NNW,341,11.5,-999.9,37,-99.99,,,-99.99,,2013-09-23 19:48:00,
2013-09-23 15:54:00,66.2,39.2,29.84,NNW,335,20.7,-999.9,37,-99.99,,,-99.99,,2013-09-23 19:54:00,
2013-09-23 16:00:00,66.2,39.2,29.84,NNW,335,20.7,-999.9,37,-99.99,,,-99.99,,2013-09-23 20:00:00,
2013-09-23 16:06:00,66.2,39.2,29.84,North,1,5.8,-999.9,37,-99.99,,,-99.99,,2013-09-23 20:06:00,
2013-09-23 16:12:00,66.2,39.2,29.84,NW,326,19.6,-999.9,37,-99.99,,,-99.99,,2013-09-23 20:12:00,
2013-09-23 16:18:00,66.2,39.2,29.84,NW,326,19.6,-999.9,37,-99.99,,,-99.99,,2013-09-23 20:18:00,
2013-09-23 16:24:00,68.0,41.0,29.84,NW,306,6.9,-999.9,37,-99.99,,,-99.99,,2013-09-23 20:24:00,
2013-09-23 16:30:00,68.0,41.0,29.84,NW,306,6.9,-999.9,37,-99.99,,,-99.99,,2013-09-23 20:30:00,
2013-09-23 16:36:00,68.0,39.2,29.83,North,8,11.5,-999.9,35,-99.99,,,-99.99,,2013-09-23 20:36:00,
2013-09-23 16:42:00,66.2,39.2,29.84,WNW,295,9.2,-999.9,37,-99.99,,,-99.99,,2013-09-23 20:42:00,
2013-09-23 16:48:00,66.2,39.2,29.84,WNW,295,9.2,-999.9,37,-99.99,,,-99.99,,2013-09-23 20:48:00,
2013-09-23 16:54:00,66.2,39.2,29.84,North,352,17.3,-999.9,37,-99.99,,,-99.99,,2013-09-23 20:54:00,
2013-09-23 17:00:00,66.2,39.2,29.84,North,352,17.3,-999.9,37,-99.99,,,-99.99,,2013-09-23 21:00:00,
2013-09-23 17:06:00,68.0,41.0,29.84,North,351,12.7,-999.9,37,-99.99,,,-99.99,,2013-09-23 21:06:00,
2013-09-23 17:12:00,66.2,39.2,29.85,NNW,336,13.8,-999.9,37,-99.99,,,-99.99,,2013-09-23 21:12:00,
2013-09-23 17:18:00,66.2,39.2,29.85,NNW,336,13.8,-999.9,37,-99.99,,,-99.99,,2013-09-23 21:18:00,
2013-09-23 17:24:00,66.2,39.2,29.85,North,11,18.4,-999.9,37,-99.99,,,-99.99,,2013-09-23 21:24:00,
2013-09-23 17:30:00,66.2,39.2,29.85,North,11,18.4,-999.9,37,-99.99,,,-99.99,,2013-09-23 21:30:00,
2013-09-23 17:36:00,66.2,39.2,29.85,NNE,18,13.8,-999.9,37,-99.99,,,-99.99,,2013-09-23 21:36:00,
2013-09-23 17:42:00,66.2,39.2,29.85,NNW,327,16.1,-999.9,37,-99.99,,,-99.99,,2013-09-23 21:42:00,
2013-09-23 17:48:00,66.2,39.2,29.85,NNW,327,16.1,-999.9,37,-99.99,,,-99.99,,2013-09-23 21:48:00,
2013-09-23 17:54:00,66.2,39.2,29.85,NNW,328,12.7,-999.9,37,-99.99,,,-99.99,,2013-09-23 21:54:00,
2013-09-23 18:00:00,66.2,39.2,29.85,NNW,328,12.7,-999.9,37,-99.99,,,-99.99,,2013-09-23 22:00:00,
2013-09-23 18:06:00,66.2,39.2,29.86,NW,320,16.1,-999.9,37,-99.99,,,-99.99,,2013-09-23 22:06:00,
2013-09-23 18:12:00,66.2,41.0,29.86,NW,319,12.7,-999.9,40,-99.99,,,-99.99,,2013-09-23 22:12:00,
2013-09-23 18:18:00,66.2,41.0,29.86,NW,319,12.7,-999.9,40,-99.99,,,-99.99,,2013-09-23 22:18:00,
2013-09-23 18:24:00,66.2,41.0,29.86,NW,312,12.7,-999.9,40,-99.99,,,-99.99,,2013-09-23 22:24:00,
2013-09-23 18:30:00,66.2,41.0,29.86,NW,312,12.7,-999.9,40,-99.99,,,-99.99,,2013-09-23 22:30:00,
2013-09-23 18:36:00,66.2,41.0,29.87,NW,318,15.0,-999.9,40,-99.99,,,-99.99,,2013-09-23 22:36:00,
2013-09-23 18:42:00,64.4,39.2,29.87,NNW,346,12.7,-999.9,40,-99.99,,,-99.99,,2013-09-23 22:42:00,
2013-09-23 18:48:00,64.4,39.2,29.87,NNW,346,12.7,-999.9,40,-99.99,,,-99.99,,2013-09-23 22:48:00,
2013-09-23 18:54:00,64.4,41.0,29.87,NW,322,11.5,-999.9,42,-99.99,,,-99.99,,2013-09-23 22:54:00,
2013-09-23 19:00:00,64.4,41.0,29.87,NW,322,11.5,-999.9,42,-99.99,,,-99.99,,2013-09-23 23:00:00,
2013-09-23 19:06:00,64.4,41.0,29.87,NNW,339,8.1,-999.9,42,-99.99,,,-99.99,,2013-09-23 23:06:00,
2013-09-23 19:12:00,64.4,41.0,29.87,NNW,337,11.5,-999.9,42,-99.99,,,-99.99,,2013-09-23 23:12:00,
2013-09-23 19:18:00,64.4,41.0,29.87,NNW,337,11.5,-999.9,42,-99.99,,,-99.99,,2013-09-23 23:18:00,
2013-09-23 19:24:00,64.4,41.0,29.88,NW,314,10.4,-999.9,42,-99.99,,,-99.99,,2013-09-23 23:24:00,
2013-09-23 19:30:00,64.4,41.0,29.88,NW,314,10.4,-999.9,42,-99.99,,,-99.99,,2013-09-23 23:30:00,
2013-09-23 19:36:00,64.4,41.0,29.88,NW,314,12.7,-999.9,42,-99.99,,,-99.99,,2013-09-23 23:36:00,
2013-09-23 20:32:00,60.8,42.8,29.90,NNW,331,13.8,-999.9,52,-99.99,,,-99.99,,2013-09-24 00:32:00,
2013-09-23 20:38:00,60.8,42.8,29.90,NNW,331,13.8,-999.9,52,-99.99,,,-99.99,,2013-09-24 00:38:00,
2013-09-23 20:44:00,60.8,42.8,29.91,NNW,328,19.6,-999.9,52,-99.99,,,-99.99,,2013-09-24 00:44:00,
2013-09-23 20:50:00,60.8,42.8,29.91,NNW,328,19.6,-999.9,52,-99.99,,,-99.99,,2013-09-24 00:50:00,
2013-09-23 20:56:00,60.8,44.6,29.91,NW,315,15.0,-999.9,55,-99.99,,,-99.99,,2013-09-24 00:56:00,
2013-09-23 21:02:00,60.8,44.6,29.91,NNW,330,18.4,-999.9,55,-99.99,,,-99.99,,2013-09-24 01:02:00,
2013-09-23 21:08:00,60.8,44.6,29.91,NNW,330,18.4,-999.9,55,-99.99,,,-99.99,,2013-09-24 01:08:00,
2013-09-23 21:14:00,59.0,44.6,29.91,North,350,11.5,-999.9,59,-99.99,,,-99.99,,2013-09-24 01:14:00,
2013-09-23 21:20:00,59.0,44.6,29.91,North,350,11.5,-999.9,59,-99.99,,,-99.99,,2013-09-24 01:20:00,
2013-09-23 21:26:00,59.0,44.6,29.91,NNW,336,9.2,-999.9,59,-99.99,,,-99.99,,2013-09-24 01:26:00,
2013-09-23 21:32:00,59.0,44.6,29.92,NNW,336,13.8,-999.9,59,-99.99,,,-99.99,,2013-09-24 01:32:00,
2013-09-23 21:38:00,59.0,44.6,29.92,NNW,336,13.8,-999.9,59,-99.99,,,-99.99,,2013-09-24 01:38:00,
2013-09-23 21:44:00,59.0,44.6,29.92,NNW,336,13.8,-999.9,59,-99.99,,,-99.99,,2013-09-24 01:44:00,
2013-09-23 21:50:00,59.0,44.6,29.92,NNW,336,13.8,-999.9,59,-99.99,,,-99.99,,2013-09-24 01:50:00,
2013-09-23 21:56:00,57.2,42.8,29.93,NNW,331,12.7,-999.9,59,-99.99,,,-99.99,,2013-09-24 01:56:00,
2013-09-23 22:02:00,57.2,42.8,29.93,NNW,345,10.4,-999.9,59,-99.99,,,-99.99,,2013-09-24 02:02:00,
2013-09-23 22:08:00,57.2,42.8,29.93,NNW,345,10.4,-999.9,59,-99.99,,,-99.99,,2013-09-24 02:08:00,
2013-09-23 22:14:00,57.2,42.8,29.93,NNW,348,10.4,-999.9,59,-99.99,,,-99.99,,2013-09-24 02:14:00,
2013-09-23 22:20:00,57.2,42.8,29.93,NNW,348,10.4,-999.9,59,-99.99,,,-99.99,,2013-09-24 02:20:00,
2013-09-23 22:26:00,57.2,42.8,29.93,NNW,341,13.8,-999.9,59,-99.99,,,-99.99,,2013-09-24 02:26:00,
2013-09-23 22:32:00,57.2,44.6,29.94,NNW,333,15.0,-999.9,63,-99.99,,,-99.99,,2013-09-24 02:32:00,
2013-09-23 22:38:00,57.2,44.6,29.94,NNW,333,15.0,-999.9,63,-99.99,,,-99.99,,2013-09-24 02:38:00,
2013-09-23 22:44:00,57.2,44.6,29.94,NNW,341,11.5,-999.9,63,-99.99,,,-99.99,,2013-09-24 02:44:00,
2013-09-23 22:50:00,57.2,44.6,29.94,NNW,341,11.5,-999.9,63,-99.99,,,-99.99,,2013-09-24 02:50:00,
2013-09-23 22:56:00,57.2,44.6,29.95,North,352,9.2,-999.9,63,-99.99,,,-99.99,,2013-09-24 02:56:00,
2013-09-23 23:02:00,57.2,44.6,29.95,NNW,337,13.8,-999.9,63,-99.99,,,-99.99,,2013-09-24 03:02:00,
2013-09-23 23:08:00,57.2,44.6,29.95,NNW,337,13.8,-999.9,63,-99.99,,,-99.99,,2013-09-24 03:08:00,
2013-09-23 23:14:00,57.2,44.6,29.95,NNW,343,9.2,-999.9,63,-99.99,,,-99.99,,2013-09-24 03:14:00,
2013-09-23 23:20:00,57.2,44.6,29.95,NNW,343,9.2,-999.9,63,-99.99,,,-99.99,,2013-09-24 03:20:00,
2013-09-23 23:26:00,55.4,42.8,29.95,NNW,347,5.8,-999.9,63,-99.99,,,-99.99,,2013-09-24 03:26:00,
2013-09-23 23:32:00,55.4,42.8,29.95,NNE,16,5.8,-999.9,63,-99.99,,,-99.99,,2013-09-24 03:32:00,
2013-09-23 23:38:00,55.4,42.8,29.95,NNE,16,5.8,-999.9,63,-99.99,,,-99.99,,2013-09-24 03:38:00,
2013-09-23 23:44:00,55.4,42.8,29.95,North,358,10.4,-999.9,63,-99.99,,,-99.99,,2013-09-24 03:44:00,
2013-09-23 23:50:00,55.4,42.8,29.95,North,358,10.4,-999.9,63,-99.99,,,-99.99,,2013-09-24 03:50:00,
2013-09-23 23:56:00,55.4,42.8,29.95,North,4,5.8,-999.9,63,-99.99,,,-99.99,,2013-09-24 03:56:00,